Change the Weather History Date:

Friday, March 14, 2014

  Actual Average Record
Temperature  
Mean Temperature 47 °F 45 °F  
Max Temperature 63 °F 56 °F 85 °F (1973)
Min Temperature 31 °F 35 °F 11 °F (1960)
Degree Days  
Heating Degree Days 18 20  
Month to date heating degree days 371 309  
Since 1 July heating degree days 4132 3810  
Cooling Degree Days 0 0  
Month to date cooling degree days 0 0  
Year to date cooling degree days 0 0  
Moisture  
Dew Point 20 °F    
Average Humidity 35    
Maximum Humidity 47    
Minimum Humidity 23    
Precipitation  
Precipitation T in 0.14 in 1.54 in (1956)
Month to date precipitation 1.40 1.74  
Year to date precipitation 8.76 7.78  
Snow  
Snow 0.00 in - - ()
Month to date snowfall 4.0  
Since 1 September snowfall 32.2  
Snow Depth 0.00 in    
Sea Level Pressure  
Sea Level Pressure 30.02 in    
Wind  
Wind Speed 11 mph (SSW)    
Max Wind Speed 24 mph    
Max Gust Speed 34 mph    
Visibility 10 miles    
Events      
T = Trace of Precipitation, MM = Missing Value Source: NWS Daily Summary

Daily Weather History Graph

Daily Weather History Graph

Search for Another Location

Airport or City:

Trip Planner

Search our weather history database for the weather conditions in past years. The results will help you decide how hot, cold, wet, or windy it might be!

Date:

Astronomy

Mar. 14, 2014 Rise Set
Actual Time 7:42 AM EDT 7:36 PM EDT
Civil Twilight 7:16 AM EDT 8:02 PM EDT
Nautical Twilight 6:45 AM EDT 8:33 PM EDT
Astronomical Twilight 6:14 AM EDT 9:04 PM EDT
Moon 5:58 PM EDT (3/14) 6:21 AM EDT (3/14)
Length of Visible Light 12h 46m
Length of Day
11h 53m
Waxing Gibbous, 96% of the Moon is Illuminated
Mar 14
Waxing Gibbous
Mar 16
Full
Mar 23
Last Quarter
Mar 30
New
Apr 7
First Quarter

Hourly Weather History & Observations

Time (EDT) Temp. Windchill Dew Point Humidity Pressure Visibility Wind Dir Wind Speed Gust Speed Precip Events Conditions
12:51 AM 30.9 °F 24.3 °F 12.9 °F 47% 30.17 in 10.0 mi SSW 6.9 mph - N/A   Overcast
1:51 AM 32.0 °F 25.6 °F 10.9 °F 42% 30.15 in 10.0 mi South 6.9 mph - N/A   Overcast
2:51 AM 30.9 °F 25.2 °F 10.9 °F 43% 30.14 in 10.0 mi SSW 5.8 mph - N/A   Scattered Clouds
3:51 AM 32.0 °F 24.8 °F 10.9 °F 42% 30.15 in 10.0 mi SSW 8.1 mph - N/A   Partly Cloudy
4:51 AM 30.9 °F 22.8 °F 10.9 °F 43% 30.13 in 10.0 mi SSW 9.2 mph - N/A   Clear
5:51 AM 30.9 °F 23.5 °F 12.0 °F 46% 30.12 in 10.0 mi South 8.1 mph - N/A   Clear
6:51 AM 32.0 °F 23.6 °F 12.9 °F 45% 30.12 in 10.0 mi SSW 10.4 mph - N/A   Clear
7:51 AM 33.1 °F 25.5 °F 12.9 °F 43% 30.12 in 10.0 mi SSW 9.2 mph - N/A   Clear
8:51 AM 36.0 °F 29.0 °F 12.9 °F 39% 30.12 in 10.0 mi SSW 9.2 mph - N/A   Clear
9:51 AM 41.0 °F 33.5 °F 16.0 °F 36% 30.12 in 10.0 mi SSW 13.8 mph - N/A   Clear
10:51 AM 46.9 °F - 21.0 °F 36% 30.10 in 10.0 mi SSW 13.8 mph 20.7 mph N/A   Clear
11:51 AM 54.0 °F - 26.1 °F 34% 30.08 in 10.0 mi SSW 10.4 mph - N/A   Clear
12:51 PM 59.0 °F - 28.0 °F 31% 30.04 in 10.0 mi SSW 16.1 mph 24.2 mph N/A   Clear
1:51 PM 61.0 °F - 28.0 °F 29% 30.01 in 10.0 mi SW 19.6 mph 28.8 mph N/A   Clear
2:51 PM 63.0 °F - 27.0 °F 26% 29.95 in 10.0 mi SW 13.8 mph 27.6 mph N/A   Clear
3:51 PM 62.1 °F - 25.0 °F 24% 29.91 in 10.0 mi SSW 17.3 mph 29.9 mph N/A   Clear
4:51 PM 61.0 °F - 24.1 °F 24% 29.89 in 10.0 mi SW 13.8 mph 32.2 mph N/A   Clear
5:51 PM 62.1 °F - 25.0 °F 24% 29.87 in 10.0 mi South 12.7 mph - N/A   Clear
6:51 PM 59.0 °F - 25.0 °F 27% 29.88 in 10.0 mi SSW 12.7 mph 21.9 mph N/A   Clear
7:51 PM 57.9 °F - 25.0 °F 28% 29.88 in 10.0 mi SSW 9.2 mph - N/A   Clear
8:51 PM 55.9 °F - 26.1 °F 32% 29.87 in 10.0 mi SSW 9.2 mph - N/A   Scattered Clouds
9:51 PM 55.9 °F - 26.1 °F 32% 29.88 in 10.0 mi SSW 8.1 mph - N/A   Overcast
10:51 PM 55.9 °F - 28.0 °F 34% 29.90 in 10.0 mi WSW 11.5 mph 17.3 mph N/A   Overcast
11:51 PM 57.9 °F - 30.9 °F 36% 29.90 in 10.0 mi WSW 10.4 mph 23.0 mph 0.00 in   Overcast